x

Matinicus Rock, Me (mism1) Weather Station

9:00 - Sat 21st Jan 2017 All times are EST. -5 hours from GMT.

  • Wind
    5mph, 6mph gusts
  • Aire Temp 41°f
  • Sea Pressure 1006.7mb
  • Matinicus Rock, Me
  • Matinicus Rock, Me

More Historic Weather Station data

Upgrade to MSW Pro to gain access to the past 30 days of data for over 8000 Wavebouys and Weather Stations around the globe.

Join Pro

Comparision Forecast

View Surf forecast
   
sáb 01/21 9:00 5 6 mph 1006.7mb 41f
8:00 2
mph
1007mb 40f
7:00 1 2 mph 1006.8mb 40f
6:00 5
mph
1006.3mb 40f
5:00 8
mph
1006.2mb 40f
4:00 8
mph
1005.6mb 40f
3:00 10 11 mph 1005.5mb 39f
2:00 8
mph
1005.6mb 39f
1:00 7 8 mph 1006mb 38f
12:00 11 13 mph 1006.7mb 37f
11:00 11 13 mph 1008.1mb 38f
10:00 18 20 mph 1009.1mb 41f
9:00 18 20 mph 1009.2mb 41f
8:00 16 17 mph 1009.4mb 40f
7:00 11 14 mph 1009.5mb 41f
6:00 16 17 mph 1010mb 41f
5:00 16 20 mph 1010.2mb 41f
4:00 16 17 mph 1010.7mb 40f
3:00 11 13 mph 1011.5mb 39f
2:00 15 16 mph 1012.2mb 40f
1:00 16 20 mph 1012mb 40f
12:00 13 17 mph 1012.2mb 39f
vie 01/20 11:00 9 11 mph 1013mb 39f
10:00 11 14 mph 1013.5mb 39f
9:00 6 9 mph 1013.5mb 39f
8:00 3 6 mph 1013.9mb 39f
7:00 5 7 mph 1014mb 38f
6:00 6 7 mph 1014.2mb 38f
5:00 1 2 mph 1014mb 38f
4:00 3 5 mph 1014.2mb 40f
3:00 3 5 mph 1014.1mb 38f
2:00 6 7 mph 1014.3mb 38f
1:00 6 8 mph 1014.5mb 39f
12:00 8 10 mph 1014.9mb 38f
11:00 14 16 mph 1015.5mb 37f
10:00 15 16 mph 1015.8mb 38f
9:00 14 15 mph 1015.8mb 37f
8:00 16 17 mph 1015.9mb 37f
7:00 13 14 mph 1015.7mb 37f
6:00 13 14 mph 1015.1mb 38f
5:00 15 16 mph 1014mb 37f
4:00 20 23 mph 1013.8mb 37f
3:00 23 24 mph 1014mb 37f
2:00 22 24 mph 1014.1mb 37f
1:00 22 26 mph 1014.7mb 37f
12:00 15 16 mph 1015mb 38f
jue 01/19 11:00 15 16 mph 1014.9mb 38f
10:00 18 21 mph 1014.6mb 39f
9:00 13 14 mph 1014.4mb 38f
8:00 15 16 mph 1014mb 38f
7:00 16 17 mph 1013.6mb 39f
6:00 11 14 mph 1013.3mb 39f
5:00 14 15 mph 1012.6mb 39f
4:00 16 17 mph 1012.2mb 39f
3:00 15 16 mph 1012.2mb 38f
2:00 11 13 mph 1012.1mb 36f
1:00 16 18 mph 1012.6mb 35f
12:00 15 16 mph 1012.5mb 37f
11:00 8 10 mph 1013.5mb 37f
10:00 13 14 mph 1014.5mb 37f
9:00 9 10 mph 1014.6mb 38f
8:00 6 7 mph 1014.6mb 37f
7:00 8 9 mph 1014.6mb 37f
6:00 11 13 mph 1014.5mb 37f
5:00 9 10 mph 1014.6mb 36f
4:00 7 8 mph 1014.9mb 36f
3:00 10
mph
1015.1mb 37f
2:00 14 15 mph 1014.8mb 37f
1:00 13 14 mph 1015.5mb 37f
12:00 13 15 mph 1015.7mb 37f
mié 01/18 11:00 17 18 mph 1015.7mb 36f
10:00 16 18 mph 1016.9mb 36f
9:00 16 18 mph 1017.2mb 35f
8:00 20 23 mph 1017.6mb 35f
7:00 22 24 mph 1018mb 35f
6:00 23 25 mph 1017.7mb 35f
5:00 24 26 mph 1017.2mb 34f
4:00 26 29 mph 1017.3mb 34f
3:00 25 29 mph 1017.6mb 33f
2:00 24 28 mph 1017mb 34f
1:00 26 29 mph 1016.9mb 34f
12:00 28 31 mph 1017mb 34f
11:00 32 34 mph 1017.4mb 34f
10:00 33 36 mph 1018.4mb 33f
9:00 36 38 mph 1018.2mb 33f
8:00 33 37 mph 1018.5mb 34f
7:00 31 33 mph 1018.4mb 33f
6:00 33 37 mph 1018.4mb 33f
5:00 31 33 mph 1018.3mb 35f
4:00 29 30 mph 1019.1mb 34f